Regional Weather Roundup
Issued by NWS

Home | Current Version | Previous Version | Text Only | Print | Product List | Glossary Off
Versions: 1 2 3 4 5 6 7 8 9 10 11 12 13 14 15 16 17 18 19 20 21 22 23 24 25 26 27 28 29 30 31 32 33 34 35 36 37 38 39 40 41 42 43 44 45 46 47 48 49 50

000
ASUS43 KBIS 242102
RWRND

NORTH DAKOTA REGIONAL WEATHER ROUNDUP
NATIONAL WEATHER SERVICE BISMARCK ND
400 PM CDT SAT JUN 24 2017

NOTE: "FAIR" INDICATES FEW OR NO CLOUDS BELOW 12,000 FEET WITH NO
SIGNIFICANT WEATHER AND/OR OBSTRUCTIONS TO VISIBILITY.


NDZ001>003-009>011-017-242200-
NORTHWEST NORTH DAKOTA

CITY           SKY/WX    TMP DP  RH WIND       PRES   REMARKS
WILLISTON      MOSUNNY   69  34  27 N13G28    30.28S
MINOT          CLOUDY    59  40  49 NW17G26   30.23R
MINOT AFB      CLOUDY    58  40  51 N18       30.22R
$$

NDZ018>021-031>035-040>046-242200-
SOUTHWEST NORTH DAKOTA

CITY           SKY/WX    TMP DP  RH WIND       PRES   REMARKS
BISMARCK       CLOUDY    63  40  42 NW16G23   30.23S
DICKINSON      MOSUNNY   64  30  27 N21G30    30.25S
GARRISON         N/A     59  40  49 N17       30.23R
HETTINGER ARPT MOSUNNY   70  30  22 NW18G32   30.26S
$$

NDZ004>008-012>016-024-026-027-054-242200-
NORTHEAST NORTH DAKOTA

CITY           SKY/WX    TMP DP  RH WIND       PRES   REMARKS
GRAND FORKS    CLOUDY    56  51  84 NW20G29   30.07R
GRND FRKS AFB  CLOUDY    56  47  73 N16G26    30.09R
DEVILS LAKE    CLOUDY    54  40  59 N22G28    30.16R
$$

NDZ022-023-025-028>030-036>039-047>053-242200-
SOUTHEAST NORTH DAKOTA

CITY           SKY/WX    TMP DP  RH WIND       PRES   REMARKS
FARGO          CLOUDY    59  50  72 NW21      30.08R
JAMESTOWN      CLOUDY    55  45  68 NW24G30   30.15R
$$




USA.gov is the U.S. government's official web portal to all federal, state and local government web resources and services.